User: anonymous   Login
Location: Eimen
(51.8766°N, 9.7806°E)
Time: 16:49:11
(UTC+00:00)
Language:

Cosmos 2181 Rocket - Orbit

View from above orbital plane
View from above orbital plane
View from above satellite
View from above satellite

Ground track
Ground track

The orbit data is extracted from the following two-line orbital elements,

1 21903U 92012B   24199.75063868  .00000092  00000-0  79553-4 0  9991
2 21903  82.9354  66.8647 0044083  80.5815 347.8623 13.74659338622777
Epoch (UTC): 17 July 2024 18:00:55
Eccentricity: 0.0044083
inclination: 82.9354°
perigee height: 950 km
apogee height: 1015 km
right ascension of ascending node: 66.8647°
argument of perigee: 80.5815°
revolutions per day: 13.74659338
mean anomaly at epoch: 347.8623°
orbit number at epoch: 62277

The dashed part of the orbit path shows where the satellite is in the earth's shadow,  

DLR